Date String (YYYY-MM-DD hh:mm:ss) UTC,Instrument flags,Ambient pressure (hPa),Sample flow (lpm),Bypass flow (lpm),Sample temperature (°C),Ambient temperature (°C),ASC tube jacket temperature (°C),LED temperature (°C),Box temperature (°C),Sample RH (%),Span deviation,Mass concentration (μg/m³),Mass concentration (μg/m³),Mass concentration (μg/m³)
DateTimeUTC,F1_M11,P_M11,Q1_M11,Q2_M11,T1_M11,T2_M11,T3_M11,T4_M11,T5_M11,U1_M11,ZSPAN_M11,X2_M11,X0_M11,X1_M11
2022-02-26 09:00:00,,0829.4,5.01,0.00,22.1,23.2,00.0,31.0,24.0,07.4,-001.0,0014.05,0019.93,0013.09
2022-02-26 09:01:00,,0829.6,4.98,0.00,22.2,23.0,00.0,31.0,24.0,07.3,-000.8,0014.04,0020.03,0013.07
2022-02-26 09:02:00,,0829.4,4.99,0.00,22.1,22.4,00.0,31.0,23.8,07.4,-000.6,0014.06,0020.29,0013.08
2022-02-26 09:03:00,,0829.2,5.01,0.00,22.0,22.0,00.0,31.0,23.6,07.4,-000.2,0014.14,0020.56,0013.12
2022-02-26 09:04:00,,0829.2,5.00,0.00,21.9,21.6,00.0,31.0,23.4,07.4,-000.0,0014.20,0021.09,0013.14
2022-02-26 09:05:00,,0829.4,5.00,0.00,21.8,21.3,00.0,30.9,23.2,07.4,0000.0,0014.24,0022.01,0013.16
2022-02-26 09:06:00,,0829.4,5.00,0.00,21.7,21.0,00.0,30.9,23.1,07.5,0000.0,0014.28,0023.15,0013.17
2022-02-26 09:07:00,,0829.4,5.00,0.00,21.6,20.8,00.0,30.9,23.0,07.5,0000.3,0014.29,0023.12,0013.19
2022-02-26 09:08:00,,0829.4,5.01,0.00,21.6,21.4,00.0,30.9,23.1,07.5,0000.6,0014.22,0023.03,0013.17
2022-02-26 09:09:00,,0829.5,5.01,0.00,21.7,22.3,00.0,30.9,23.5,07.5,0000.7,0014.28,0023.32,0013.18
2022-02-26 09:10:00,,0829.5,4.99,0.00,21.9,22.9,00.0,30.9,23.8,07.4,0000.9,0014.32,0023.86,0013.18
2022-02-26 09:11:00,,0829.5,5.00,0.00,22.0,22.6,00.0,30.9,23.8,07.3,0000.7,0014.30,0023.83,0013.16
2022-02-26 09:12:00,,0829.3,5.01,0.00,21.9,22.2,00.0,30.9,23.7,07.1,0000.5,0014.21,0024.14,0013.07
2022-02-26 09:13:00,,0829.3,4.99,0.00,21.9,21.8,00.0,30.9,23.5,07.2,0000.3,0014.12,0024.14,0013.01
2022-02-26 09:14:00,,0829.2,5.01,0.00,21.8,21.4,00.0,30.9,23.4,07.3,0000.2,0014.12,0024.01,0013.01
2022-02-26 09:15:00,,0829.2,4.99,0.00,21.7,21.0,00.0,30.9,23.3,07.3,0000.2,0014.12,0023.63,0013.01
2022-02-26 09:16:00,,0829.6,5.00,0.00,21.7,20.8,00.0,30.8,23.2,07.4,-000.2,0014.15,0023.04,0013.05
2022-02-26 09:17:00,,0829.3,5.00,0.00,21.6,20.7,00.0,30.8,23.2,07.5,-000.6,0014.26,0021.63,0013.16
2022-02-26 09:18:00,,0829.4,5.01,0.00,21.7,21.2,00.0,30.8,23.3,07.5,-001.0,0014.33,0021.54,0013.23
2022-02-26 09:19:00,,0829.2,5.00,0.00,21.8,22.1,00.0,30.8,23.6,07.4,-001.5,0014.40,0021.69,0013.29
2022-02-26 09:20:00,,0829.5,5.01,0.00,21.9,22.8,00.0,30.9,23.9,07.4,-001.6,0014.48,0021.69,0013.37
2022-02-26 09:21:00,,0829.5,4.98,0.00,22.0,22.6,00.0,30.9,23.9,07.3,-001.5,0014.48,0021.26,0013.42
2022-02-26 09:22:00,,0829.5,5.01,0.00,22.0,22.3,00.0,30.9,23.8,07.3,-001.2,0014.51,0021.08,0013.45
2022-02-26 09:23:00,,0829.2,4.99,0.00,22.0,21.9,00.0,30.9,23.7,07.3,-000.9,0014.60,0020.81,0013.57
2022-02-26 09:24:00,,0829.2,5.00,0.00,21.9,21.5,00.0,30.9,23.6,07.3,-000.8,0014.67,0020.09,0013.65
2022-02-26 09:25:00,,0829.2,5.00,0.00,21.9,21.3,00.0,30.9,23.5,07.3,-000.9,0014.69,0020.28,0013.63
2022-02-26 09:26:00,,0829.2,5.00,0.00,21.8,21.1,00.0,30.9,23.5,07.3,-001.0,0014.67,0020.54,0013.62
2022-02-26 09:27:00,,0829.2,5.00,0.00,21.8,21.0,00.0,30.9,23.4,07.3,-000.7,0014.62,0020.98,0013.60
2022-02-26 09:28:00,,0829.2,5.00,0.00,21.8,21.0,00.0,30.8,23.3,07.3,-000.4,0014.49,0020.92,0013.50
2022-02-26 09:29:00,,0829.2,5.00,0.00,21.8,21.6,00.0,30.9,23.5,07.2,-000.2,0014.38,0021.21,0013.42
2022-02-26 09:30:00,,0829.2,5.00,0.00,22.0,22.5,00.0,30.9,23.8,07.2,0000.4,0014.31,0021.02,0013.36
2022-02-26 09:31:00,,0829.2,5.01,0.00,22.1,22.9,00.0,30.9,24.0,07.2,0000.6,0014.23,0021.04,0013.28
2022-02-26 09:32:00,,0829.2,5.00,0.00,22.1,22.6,00.0,31.0,24.0,07.2,0000.3,0014.17,0021.23,0013.20
2022-02-26 09:33:00,,0829.2,4.99,0.00,22.1,22.2,00.0,31.0,23.9,07.2,0000.3,0014.04,0021.47,0013.09
2022-02-26 09:34:00,,0829.2,5.01,0.00,22.0,21.9,00.0,31.0,23.7,07.2,0000.2,0013.91,0021.28,0012.96
2022-02-26 09:35:00,,0829.2,4.99,0.00,22.0,21.6,00.0,30.9,23.6,07.3,0000.5,0013.81,0021.23,0012.85
2022-02-26 09:36:00,,0829.2,4.99,0.00,21.9,21.4,00.0,30.9,23.5,07.3,0000.6,0013.68,0021.10,0012.75
2022-02-26 09:37:00,,0829.2,5.00,0.00,21.8,21.2,00.0,30.9,23.4,07.4,0000.5,0013.66,0020.85,0012.74
2022-02-26 09:38:00,,0829.2,5.00,0.00,21.8,21.1,00.0,30.9,23.4,07.4,0000.4,0013.68,0020.40,0012.72
2022-02-26 09:39:00,,0829.3,5.01,0.00,21.8,21.3,00.0,30.9,23.4,07.4,0000.3,0013.67,0020.20,0012.67
2022-02-26 09:40:00,,0829.4,5.00,0.00,21.9,22.0,00.0,30.9,23.6,07.4,0000.2,0013.58,0019.60,0012.54
2022-02-26 09:41:00,,0829.4,5.01,0.00,22.0,22.8,00.0,31.0,23.9,07.3,0000.0,0013.49,0019.62,0012.40
2022-02-26 09:42:00,,0829.3,5.01,0.00,22.1,22.8,00.0,31.0,24.0,07.3,-000.2,0013.37,0019.61,0012.29
2022-02-26 09:43:00,,0829.3,4.98,0.00,22.1,22.5,00.0,31.0,23.9,07.3,0000.1,0013.21,0019.28,0012.15
2022-02-26 09:44:00,,0829.2,5.01,0.00,22.1,22.1,00.0,31.0,23.8,07.4,-000.3,0013.10,0019.04,0012.01
2022-02-26 09:45:00,,0829.2,5.00,0.00,22.0,21.7,00.0,31.0,23.6,07.4,-000.3,0013.04,0019.31,0011.87
2022-02-26 09:46:00,,0829.2,5.00,0.00,21.9,21.4,00.0,31.0,23.5,07.4,-000.3,0012.92,0019.17,0011.74
2022-02-26 09:47:00,,0829.2,5.00,0.00,21.9,21.2,00.0,30.9,23.4,07.3,-000.6,0012.85,0019.17,0011.63
2022-02-26 09:48:00,,0829.2,5.00,0.00,21.8,21.0,00.0,30.9,23.3,07.3,-000.7,0012.74,0019.19,0011.46
2022-02-26 09:49:00,,0829.3,5.00,0.00,21.7,20.9,00.0,30.9,23.2,07.4,-000.8,0012.56,0018.94,0011.27
2022-02-26 09:50:00,,0829.2,4.99,0.00,21.7,21.2,00.0,30.9,23.3,07.3,-000.9,0012.37,0019.16,0011.09
2022-02-26 09:51:00,,0829.3,5.01,0.00,21.8,22.0,00.0,30.9,23.6,07.2,-000.9,0012.21,0019.53,0010.97
2022-02-26 09:52:00,,0829.2,4.99,0.00,22.0,22.8,00.0,31.0,23.9,07.2,-000.8,0012.03,0019.59,0010.81
2022-02-26 09:53:00,,0829.2,5.00,0.00,22.1,23.0,00.0,31.0,24.0,07.1,-000.7,0011.81,0019.34,0010.61
2022-02-26 09:54:00,,0829.2,5.00,0.00,22.1,22.6,00.0,31.0,23.9,07.1,-000.7,0011.63,0019.22,0010.43
2022-02-26 09:55:00,,0829.3,4.99,0.00,22.1,22.2,00.0,31.0,23.8,07.2,-000.5,0011.48,0018.88,0010.30
2022-02-26 09:56:00,,0829.2,5.01,0.00,22.0,21.9,00.0,31.0,23.7,07.2,-000.5,0011.25,0018.66,0010.13
2022-02-26 09:57:00,,0829.2,5.01,0.00,21.9,21.6,00.0,31.0,23.5,07.2,-000.8,0011.04,0018.32,0009.97
2022-02-26 09:58:00,,0829.1,4.99,0.00,21.9,21.4,00.0,31.0,23.4,07.3,-000.3,0010.83,0017.90,0009.79
2022-02-26 09:59:00,,0829.2,5.00,0.00,21.8,21.1,00.0,30.9,23.3,07.3,-000.1,0010.57,0017.34,0009.60
